(計算時間: 0.104秒, 共找到 88968 筆資料,顯示第 88901 到 88968 筆)
可用欄位參考
GUID date humidity temperature pm25 geox geoy
54dc1e06-61ac-489f-a77f-0c3cd38a10d1 2015-11-16T06:22:00 60.8 30.7 13 120.218 23.006
54dc1e06-61ac-489f-a77f-0c3cd38a10d1 2015-11-16T06:23:00 60.275 30.725 13.5 120.218 23.006
54dc1e06-61ac-489f-a77f-0c3cd38a10d1 2015-11-16T06:24:00 59.733333333333 30.833333333333 13.666666666667 120.218 23.006
54dc1e06-61ac-489f-a77f-0c3cd38a10d1 2015-11-16T06:26:00 59.433333333333 30.966666666667 12 120.218 23.006
54dc1e06-61ac-489f-a77f-0c3cd38a10d1 2015-11-16T06:27:00 58.65 30.85 13.5 120.218 23.006
54dc1e06-61ac-489f-a77f-0c3cd38a10d1 2015-11-16T06:28:00 59.133333333333 30.7 12.666666666667 120.218 23.006
54dc1e06-61ac-489f-a77f-0c3cd38a10d1 2015-11-16T06:29:00 60.2 30.7 13.5 120.218 23.006
54dc1e06-61ac-489f-a77f-0c3cd38a10d1 2015-11-16T06:30:00 60.6 30.7 15 120.218 23.006
54dc1e06-61ac-489f-a77f-0c3cd38a10d1 2015-11-16T06:32:00 60.533333333333 30.866666666667 13.666666666667 120.218 23.006
54dc1e06-61ac-489f-a77f-0c3cd38a10d1 2015-11-16T06:33:00 58.65 30.8 13 120.218 23.006
54dc1e06-61ac-489f-a77f-0c3cd38a10d1 2015-11-16T06:34:00 59.2 30.666666666667 13.666666666667 120.218 23.006
54dc1e06-61ac-489f-a77f-0c3cd38a10d1 2015-11-16T06:35:00 59.5 30.7 13 120.218 23.006
54dc1e06-61ac-489f-a77f-0c3cd38a10d1 2015-11-16T06:37:00 59.55 30.925 13.75 120.218 23.006
54dc1e06-61ac-489f-a77f-0c3cd38a10d1 2015-11-16T06:38:00 59.2 30.966666666667 13 120.218 23.006
54dc1e06-61ac-489f-a77f-0c3cd38a10d1 2015-11-16T06:39:00 58.825 31.05 13.5 120.218 23.006
54dc1e06-61ac-489f-a77f-0c3cd38a10d1 2015-11-16T06:40:00 58.8 31 13 120.218 23.006
54dc1e06-61ac-489f-a77f-0c3cd38a10d1 2015-11-16T06:41:00 58.65 31 13 120.218 23.006
54dc1e06-61ac-489f-a77f-0c3cd38a10d1 2015-11-16T06:42:00 58.7 31.1 13 120.218 23.006
54dc1e06-61ac-489f-a77f-0c3cd38a10d1 2015-11-16T06:44:00 58.25 31.1 13 120.218 23.006
54dc1e06-61ac-489f-a77f-0c3cd38a10d1 2015-11-16T06:45:00 58.8 31.1 14 120.218 23.006
54dc1e06-61ac-489f-a77f-0c3cd38a10d1 2015-11-16T06:46:00 58.7 31.1 12 120.218 23.006
54dc1e06-61ac-489f-a77f-0c3cd38a10d1 2015-11-16T06:47:00 59 31.1 13 120.218 23.006
54dc1e06-61ac-489f-a77f-0c3cd38a10d1 2015-11-16T06:48:00 59.2 30.9 13.5 120.218 23.006
54dc1e06-61ac-489f-a77f-0c3cd38a10d1 2015-11-16T06:49:00 59.2 31.066666666667 13.666666666667 120.218 23.006
54dc1e06-61ac-489f-a77f-0c3cd38a10d1 2015-11-16T06:51:00 58.3 31.1 15.333333333333 120.218 23.006
54dc1e06-61ac-489f-a77f-0c3cd38a10d1 2015-11-16T06:53:00 58.2 31.2 15.5 120.218 23.006
54dc1e06-61ac-489f-a77f-0c3cd38a10d1 2015-11-16T06:54:00 57.766666666667 31.233333333333 13 120.218 23.006
54dc1e06-61ac-489f-a77f-0c3cd38a10d1 2015-11-16T06:55:00 57.98 31.04 13.8 120.218 23.006
54dc1e06-61ac-489f-a77f-0c3cd38a10d1 2015-11-16T06:56:00 59.2 30.8 13 120.218 23.006
54dc1e06-61ac-489f-a77f-0c3cd38a10d1 2015-11-16T06:57:00 59.25 30.7 15.5 120.218 23.006
54dc1e06-61ac-489f-a77f-0c3cd38a10d1 2015-11-16T06:58:00 59.2 30.766666666667 13.666666666667 120.218 23.006
54dc1e06-61ac-489f-a77f-0c3cd38a10d1 2015-11-16T06:59:00 58.8 30.866666666667 12.666666666667 120.218 23.006
54dc1e06-61ac-489f-a77f-0c3cd38a10d1 2015-11-16T07:00:00 59.5 30.75 14 120.218 23.006
54dc1e06-61ac-489f-a77f-0c3cd38a10d1 2015-11-16T07:01:00 58.9 30.9 15.666666666667 120.218 23.006
54dc1e06-61ac-489f-a77f-0c3cd38a10d1 2015-11-16T07:02:00 58.8 30.9 14 120.218 23.006
54dc1e06-61ac-489f-a77f-0c3cd38a10d1 2015-11-16T07:06:00 58.74 30.78 13.6 120.218 23.006
54dc1e06-61ac-489f-a77f-0c3cd38a10d1 2015-11-16T07:07:00 58.7 30.8 14.5 120.218 23.006
54dc1e06-61ac-489f-a77f-0c3cd38a10d1 2015-11-16T07:08:00 59 30.7 13 120.218 23.006
54dc1e06-61ac-489f-a77f-0c3cd38a10d1 2015-11-16T07:09:00 59.133333333333 30.766666666667 14.333333333333 120.218 23.006
54dc1e06-61ac-489f-a77f-0c3cd38a10d1 2015-11-16T07:11:00 58.92 30.94 14.2 120.218 23.006
54dc1e06-61ac-489f-a77f-0c3cd38a10d1 2015-11-16T07:12:00 58.55 30.95 13 120.218 23.006
54dc1e06-61ac-489f-a77f-0c3cd38a10d1 2015-11-16T07:13:00 58.8 31.05 16.5 120.218 23.006
54dc1e06-61ac-489f-a77f-0c3cd38a10d1 2015-11-16T07:14:00 58.6 31.2 12 120.218 23.006
54dc1e06-61ac-489f-a77f-0c3cd38a10d1 2015-11-16T07:15:00 58.6 31.1 17 120.218 23.006
54dc1e06-61ac-489f-a77f-0c3cd38a10d1 2015-11-16T07:17:00 59.5 31.2 13.5 120.218 23.006
54dc1e06-61ac-489f-a77f-0c3cd38a10d1 2015-11-16T07:18:00 59.8 31.2 17.333333333333 120.218 23.006
54dc1e06-61ac-489f-a77f-0c3cd38a10d1 2015-11-16T07:19:00 59.64 31.18 17.4 120.218 23.006
54dc1e06-61ac-489f-a77f-0c3cd38a10d1 2015-11-16T07:20:00 59.933333333333 31.166666666667 18.333333333333 120.218 23.006
54dc1e06-61ac-489f-a77f-0c3cd38a10d1 2015-11-16T07:22:00 59.4 31.2 19 120.218 23.006
54dc1e06-61ac-489f-a77f-0c3cd38a10d1 2015-11-16T07:23:00 60.4 31.066666666667 18.666666666667 120.218 23.006
54dc1e06-61ac-489f-a77f-0c3cd38a10d1 2015-11-16T07:26:00 60.25 30.7 17.25 120.218 23.006
54dc1e06-61ac-489f-a77f-0c3cd38a10d1 2015-11-16T07:27:00 59.9 30.733333333333 18.333333333333 120.218 23.006
54dc1e06-61ac-489f-a77f-0c3cd38a10d1 2015-11-16T07:28:00 59.6 30.9 17 120.218 23.006
54dc1e06-61ac-489f-a77f-0c3cd38a10d1 2015-11-16T07:29:00 58.95 30.95 17.5 120.218 23.006
54dc1e06-61ac-489f-a77f-0c3cd38a10d1 2015-11-16T07:30:00 58.3 30.983333333333 17 120.218 23.006
54dc1e06-61ac-489f-a77f-0c3cd38a10d1 2015-11-16T07:31:00 58.3 31.233333333333 18.333333333333 120.218 23.006
54dc1e06-61ac-489f-a77f-0c3cd38a10d1 2015-11-16T07:32:00 58.233333333333 31.3 17.333333333333 120.218 23.006
54dc1e06-61ac-489f-a77f-0c3cd38a10d1 2015-11-16T07:33:00 57.9 31.25 19.5 120.218 23.006
54dc1e06-61ac-489f-a77f-0c3cd38a10d1 2015-11-16T07:34:00 59.266666666667 30.8 16 120.218 23.006
54dc1e06-61ac-489f-a77f-0c3cd38a10d1 2015-11-16T07:35:00 59.7 30.9 17 120.218 23.006
54dc1e06-61ac-489f-a77f-0c3cd38a10d1 2015-11-16T07:36:00 59.35 30.9 18.833333333333 120.218 23.006
54dc1e06-61ac-489f-a77f-0c3cd38a10d1 2015-11-16T07:38:00 58.4 30.8 17 120.218 23.006
54dc1e06-61ac-489f-a77f-0c3cd38a10d1 2015-11-16T07:39:00 58.85 30.65 17 120.218 23.006
54dc1e06-61ac-489f-a77f-0c3cd38a10d1 2015-11-16T07:41:00 58.5 30.9 17 120.218 23.006
54dc1e06-61ac-489f-a77f-0c3cd38a10d1 2015-11-16T07:42:00 58.8 30.966666666667 18 120.218 23.006
54dc1e06-61ac-489f-a77f-0c3cd38a10d1 2015-11-16T07:43:00 58.88 31 16.8 120.218 23.006
54dc1e06-61ac-489f-a77f-0c3cd38a10d1 2015-11-16T07:44:00 58.7 31 16 120.218 23.006
54dc1e06-61ac-489f-a77f-0c3cd38a10d1 2015-11-16T07:45:00 58.55 30.9 16.5 120.218 23.006